[[{"header":{"parameterUnit":"m.s-1","parameterCategory":1,"la1":30.2991,"la2":30.254,"lo1":-89.0895,"lo2":-89.0444,"dy":0.0017,"dx":0.0017,"nx":28,"ny":28,"refTime":"2026-02-11T09:00:00:Z","depth":0,"parameterNumber":2,"parameterNumberName":"U-component_of_WINDS"},"data":[0,0,0,0,0,0,0,0,0,0,0,0,0,0,0,0,0,0,0,0,0,0,0,0,0,0,0,0,0,0,0,0,0,0,0,0,0,0,0,0,0,0,0,0,0,0,0,0,0,0,0,0,0,0,0,0,0,0,0.2033,0.2033,0,0.2,0.1999,0.1999,0.194,0.1939,0.1938,0.1937,0.1904,0.1904,0.1904,0,0,0,0,0,0,0,0,0,0,0,0,0,0.2049,0.2049,0.2033,0.2033,0.2032,0.2,0.1999,0.1999,0.194,0.1939,0.1938,0.1936,0.1904,0.1904,0.1904,0,0,0,0,0,0,0,0,0,0,0,0,0,0.2031,0.2049,0.2033,0.1999,0.1996,0.2,0.1999,0.1999,0.1941,0.1939,0.1937,0.1936,0.1904,0.1904,0.1904,0.1939,0,0,0.1905,0.1905,0,0,0,0,0,0,0,0,0.2032,0.2031,0.2005,0.2002,0.1998,0.1972,0.1992,0.1979,0.1941,0.1962,0.1937,0.1935,0.1928,0.1926,0.1924,0.1938,0.1936,0.1905,0.1905,0.1905,0.1905,0,0,0,0,0,0,0,0.2034,0.2032,0.202,0.2004,0.2,0.1986,0.1982,0.199,0.1955,0.196,0.1955,0.1952,0.1926,0.1924,0.1923,0.1936,0.1905,0.1905,0.1905,0.1906,0.1977,0.1978,0,0,0,0,0,0,0.204,0.2033,0.2021,0.2019,0.2011,0.1987,0.1983,0.1982,0.1955,0.1949,0.1954,0.195,0.1924,0.1922,0.1921,0.196,0.1905,0.1906,0.1906,0.1975,0.1977,0.1979,0,0,0,0,0,0,0.204,0.2039,0.2022,0.2025,0.2022,0.1989,0.1989,0.1983,0.198,0.195,0.1943,0.1958,0.1923,0.1921,0.1935,0.1958,0.1906,0.1906,0.1973,0.1976,0.1978,0.2038,0,0,0,0,0,0,0.2041,0.204,0.2052,0.2026,0.2022,0.2037,0.199,0.1983,0.198,0.1975,0.1952,0.1946,0.1921,0.1935,0.1935,0.1957,0.1906,0.1971,0.1974,0.1977,0.2034,0.2043,0.205,0,0,0,0,0,0.2042,0.2071,0.2053,0.2052,0.2037,0.2038,0.2036,0.2006,0.1982,0.1995,0.1976,0.1947,0.1956,0.1937,0.1937,0.1959,0.1969,0.1973,0.1977,0.2031,0.2041,0.205,0,0,0,0,0,0,0.2101,0.2067,0.2047,0.2068,0.2056,0.2028,0.2043,0.2018,0.2013,0.2008,0.1972,0.1967,0.1986,0.1974,0.1954,0.1992,0.1958,0.1962,0.1999,0.2008,0.2016,0.2019,0.1906,0,0,0,0,0,0.2117,0.212,0.209,0.2112,0.2107,0.2076,0.2076,0.2053,0.204,0.2035,0.2017,0.2006,0.2005,0.2006,0.2005,0.2032,0.2027,0.2048,0.2056,0.2062,0.2066,0.208,0.2089,0.1992,0.1992,0.1992,0,0,0.2149,0.213,0.2135,0.2123,0.2111,0.2116,0.2072,0.2079,0.2083,0.2036,0.2048,0.2035,0.202,0.2041,0.2049,0.2032,0.2092,0.2067,0.2073,0.2073,0.2085,0.2095,0.2103,0.1995,0.1994,0.1994,0,0,0.221,0.2196,0.2213,0.2202,0.2185,0.2164,0.2169,0.2144,0.2133,0.2145,0.211,0.2114,0.2115,0.2106,0.2101,0.216,0.2133,0.216,0.2202,0.2216,0.2223,0.223,0.2251,0.2259,0.2164,0.2164,0.2164,0,0.2252,0.2257,0.2225,0.2234,0.223,0.2188,0.2205,0.2196,0.218,0.2178,0.2159,0.2159,0.2146,0.2164,0.2179,0.2176,0.218,0.2162,0.2225,0.2231,0.2237,0.2256,0.2264,0.2168,0.2167,0.2167,0.2167,0,0.231,0.2315,0.233,0.2315,0.2313,0.2326,0.2296,0.2298,0.2276,0.2258,0.2271,0.2254,0.2248,0.2251,0.223,0.2267,0.2256,0.2231,0.2196,0.225,0.2268,0.2275,0.2173,0.2171,0.217,0.2169,0,0,0.2407,0.2374,0.238,0.2373,0.2351,0.2354,0.2366,0.236,0.2362,0.2353,0.2362,0.2364,0.2341,0.2336,0.2313,0.2326,0.2373,0.2299,0.2298,0.2314,0.2413,0.2432,0.2441,0.2356,0.2357,0.2358,0.2414,0,0.2463,0.248,0.2452,0.2476,0.248,0.244,0.245,0.2439,0.2422,0.2424,0.2405,0.2407,0.2377,0.2373,0.2384,0.2365,0.2393,0.2361,0.2364,0.2365,0.2369,0.245,0.247,0.2523,0.2421,0.2422,0.2423,0,0.2531,0.2525,0.2549,0.2526,0.2527,0.2536,0.2529,0.2531,0.2517,0.2504,0.2499,0.2472,0.2483,0.2449,0.2463,0.2442,0.2442,0.2433,0.2435,0.2434,0.2397,0.2451,0.254,0.2548,0.2434,0.2433,0.2432,0,0.2599,0.2597,0.2611,0.2606,0.258,0.2587,0.2577,0.2561,0.256,0.2554,0.2552,0.2548,0.2545,0.2542,0.2516,0.2494,0.2533,0.2498,0.2523,0.2524,0.2533,0.2532,0.2622,0.2533,0.2533,0.2533,0.2533,0,0.2665,0.2681,0.2641,0.265,0.2667,0.2635,0.2653,0.2639,0.2625,0.2631,0.2597,0.2603,0.2568,0.2571,0.255,0.2565,0.2564,0.2554,0.2549,0.2557,0.2558,0.2556,0.2552,0.2535,0.2535,0.2534,0.2534,0,0.2743,0.2717,0.273,0.2704,0.2698,0.2713,0.2691,0.2698,0.268,0.2688,0.2688,0.2659,0.266,0.2634,0.263,0.2616,0.264,0.2628,0.2645,0.2641,0.2667,0.2665,0.2759,0.2769,0.2674,0.2675,0.2676,0,0.2787,0.2798,0.2774,0.2775,0.2767,0.2769,0.2767,0.2736,0.2735,0.2721,0.273,0.2729,0.2726,0.273,0.2709,0.2706,0.2694,0.2727,0.2693,0.2701,0.2694,0.2694,0.2695,0.2734,0.2735,0.2736,0.2737,0,0.2866,0.2853,0.2851,0.2846,0.2844,0.2839,0.283,0.2834,0.2799,0.2801,0.2802,0.2799,0.2796,0.2795,0.2788,0.2778,0.2752,0.2748,0.2753,0.2762,0.2771,0.2766,0.2664,0.2746,0.2745,0.2744,0.2744,0.2743,0.2928,0.2937,0.2921,0.2921,0.2912,0.2905,0.2911,0.2893,0.2893,0.2887,0.2869,0.2873,0.286,0.2848,0.284,0.2843,0.2827,0.2835,0.2837,0.284,0.2845,0.2771,0.2842,0.2842,0.2841,0.2841,0.2841,0,0.3006,0.2994,0.2994,0.2984,0.2984,0.2959,0.2949,0.2951,0.2955,0.2944,0.2942,0.2944,0.2943,0.2922,0.2919,0.2926,0.2914,0.2926,0.2925,0.2923,0.286,0.2855,0.2936,0.2936,0.2936,0.2936,0.2935,0.2935,0.3046,0.3059,0.3045,0.3053,0.3041,0.3045,0.3041,0.3035,0.3027,0.303,0.3029,0.3015,0.3001,0.2996,0.2995,0.2989,0.2989,0.3005,0.2996,0.2937,0.2927,0.2919,0.2914,0.3006,0.3006,0.3058,0.3059,0.3059]},{"header":{"parameterUnit":"m.s-1","parameterCategory":1,"la1":30.2991,"la2":30.254,"lo1":-89.0895,"lo2":-89.0444,"dy":0.0017,"dx":0.0017,"nx":28,"ny":28,"refTime":"2026-02-11T09:00:00:Z","depth":0,"parameterNumber":3,"parameterNumberName":"V-component_of_WINDS"},"data":[0,0,0,0,0,0,0,0,0,0,0,0,0,0,0,0,0,0,0,0,0,0,0,0,0,0,0,0,0,0,0,0,0,0,0,0,0,0,0,0,0,0,0,0,0,0,0,0,0,0,0,0,0,0,0,0,0,0,2.116,2.116,0,2.1239,2.124,2.1241,2.1231,2.123,2.1228,2.1227,2.1313,2.1316,2.132,0,0,0,0,0,0,0,0,0,0,0,0,0,2.1003,2.1006,2.116,2.1161,2.1162,2.1239,2.124,2.1241,2.1231,2.123,2.1228,2.1226,2.1312,2.1316,2.132,0,0,0,0,0,0,0,0,0,0,0,0,0,2.1076,2.1007,2.1159,2.1166,2.1167,2.1239,2.124,2.1241,2.1231,2.1229,2.1228,2.1226,2.131,2.1315,2.132,2.1392,0,0,2.1336,2.1339,0,0,0,0,0,0,0,0,2.1071,2.1081,2.1164,2.1166,2.1167,2.1223,2.1216,2.1292,2.1232,2.1207,2.1227,2.1225,2.1285,2.1292,2.1311,2.1396,2.1399,2.1337,2.134,2.1342,2.1344,0,0,0,0,0,0,0,2.1066,2.1078,2.1191,2.1165,2.1167,2.1166,2.1174,2.123,2.1256,2.1209,2.1209,2.1218,2.1285,2.1306,2.1313,2.1401,2.1337,2.1341,2.1345,2.1347,2.1548,2.155,0,0,0,0,0,0,2.1059,2.1074,2.1189,2.1193,2.1113,2.117,2.1179,2.1207,2.1255,2.1261,2.122,2.1217,2.1298,2.1307,2.1316,2.1403,2.1342,2.1347,2.135,2.1546,2.1548,2.1551,0,0,0,0,0,0,2.1056,2.1069,2.1185,2.1133,2.1148,2.1175,2.1206,2.121,2.1231,2.1263,2.1268,2.1236,2.1297,2.1309,2.1373,2.1406,2.135,2.1354,2.1543,2.1546,2.155,2.1578,0,0,0,0,0,0,2.1051,2.1068,2.1095,2.1134,2.1151,2.124,2.1208,2.1213,2.1239,2.1237,2.128,2.1285,2.1296,2.1365,2.1378,2.1412,2.1358,2.154,2.1545,2.1548,2.1574,2.1582,2.1588,0,0,0,0,0,2.1046,2.1101,2.1097,2.1111,2.1185,2.1242,2.1251,2.1262,2.1242,2.1269,2.129,2.1284,2.14,2.1372,2.1386,2.1423,2.1538,2.1543,2.1548,2.1571,2.158,2.1588,0,0,0,0,0,0,2.1067,2.1106,2.1102,2.1171,2.1203,2.124,2.1275,2.1271,2.1311,2.1307,2.132,2.133,2.1394,2.1415,2.1383,2.1494,2.1466,2.1475,2.1479,2.1488,2.1495,2.1489,2.1363,0,0,0,0,0,2.1079,2.1121,2.1154,2.1212,2.1228,2.1248,2.1274,2.1279,2.1313,2.1327,2.1352,2.1387,2.1431,2.146,2.1503,2.1576,2.1586,2.1608,2.1615,2.1621,2.1628,2.1669,2.1679,2.1567,2.1567,2.1567,0,0,2.1107,2.1133,2.1159,2.1216,2.1242,2.1286,2.126,2.1308,2.1341,2.1335,2.1397,2.1416,2.1456,2.1525,2.1556,2.1544,2.1661,2.1627,2.1631,2.1636,2.1675,2.1686,2.1695,2.157,2.157,2.1569,0,0,2.1178,2.1202,2.1253,2.1278,2.1316,2.1329,2.1341,2.1378,2.1391,2.1452,2.1448,2.1488,2.1564,2.1592,2.1617,2.1697,2.1693,2.171,2.1748,2.1788,2.1797,2.1804,2.1834,2.1845,2.1717,2.1718,2.1718,0,2.1207,2.1273,2.128,2.1328,2.1354,2.1347,2.1399,2.1424,2.1475,2.1493,2.1477,2.1572,2.1598,2.1673,2.1693,2.1712,2.1727,2.1707,2.1794,2.1802,2.181,2.1838,2.1849,2.1719,2.1719,2.1719,2.1719,0,2.1307,2.1352,2.1389,2.1436,2.1465,2.1515,2.1531,2.156,2.1562,2.1577,2.164,2.1671,2.1719,2.1737,2.174,2.1813,2.1804,2.1791,2.1764,2.1822,2.185,2.186,2.1722,2.1722,2.1721,2.172,0,0,2.1397,2.1445,2.1459,2.148,2.152,2.1556,2.1606,2.1651,2.1677,2.1711,2.1754,2.1817,2.1805,2.1832,2.1838,2.1873,2.1935,2.1856,2.1857,2.1871,2.2019,2.2029,2.2042,2.1932,2.1934,2.1936,2.2016,0,2.1473,2.156,2.1567,2.1645,2.1687,2.1681,2.1724,2.1754,2.1769,2.1808,2.1825,2.187,2.185,2.1867,2.19,2.192,2.1965,2.1915,2.1974,2.1976,2.1965,2.2056,2.2067,2.2142,2.2026,2.2028,2.2029,0,2.1575,2.1611,2.1693,2.1726,2.1744,2.1783,2.1825,2.1862,2.1896,2.1904,2.1934,2.1935,2.1987,2.1956,2.2028,2.1993,2.2018,2.2031,2.2034,2.2042,2.2007,2.2067,2.2165,2.2177,2.2046,2.2044,2.2043,0,2.1634,2.1702,2.176,2.1778,2.1819,2.1846,2.1864,2.1896,2.1923,2.196,2.1977,2.202,2.2045,2.2078,2.2091,2.2067,2.2163,2.2133,2.2173,2.2173,2.2196,2.2195,2.2301,2.2208,2.2208,2.2208,2.2208,0,2.172,2.1771,2.1787,2.1823,2.188,2.1887,2.1943,2.196,2.1988,2.2028,2.2025,2.2063,2.2076,2.2117,2.2127,2.2186,2.2197,2.2206,2.2209,2.2207,2.2206,2.2225,2.2221,2.2211,2.221,2.221,2.2209,0,2.1797,2.1809,2.1872,2.1904,2.1913,2.1954,2.1982,2.2017,2.203,2.208,2.2093,2.2114,2.2161,2.2177,2.2234,2.2241,2.231,2.2307,2.2298,2.2299,2.2339,2.2335,2.2462,2.248,2.2374,2.2375,2.2376,0,2.1852,2.189,2.1926,2.1951,2.197,2.2011,2.2038,2.2046,2.2075,2.2115,2.2146,2.2191,2.2229,2.2305,2.2326,2.237,2.237,2.2411,2.2376,2.2374,2.2372,2.237,2.2374,2.2418,2.2419,2.242,2.2421,0,2.1948,2.1952,2.199,2.203,2.2061,2.2093,2.2124,2.2145,2.2158,2.219,2.2237,2.2266,2.2323,2.237,2.2414,2.2434,2.2431,2.2431,2.2443,2.2443,2.2437,2.2442,2.2318,2.2429,2.2428,2.2427,2.2427,2.2427,2.2017,2.2051,2.2081,2.2123,2.2146,2.2175,2.2209,2.2226,2.2264,2.2311,2.2313,2.2364,2.2397,2.2455,2.2478,2.2519,2.2507,2.2524,2.2529,2.2533,2.2537,2.2428,2.2526,2.2526,2.2526,2.2526,2.2526,0,2.2115,2.2133,2.2171,2.2214,2.2247,2.2237,2.2271,2.23,2.2344,2.2373,2.241,2.2464,2.2508,2.2532,2.2577,2.2605,2.2604,2.2616,2.2616,2.262,2.2544,2.253,2.2616,2.2616,2.2616,2.2616,2.2616,2.2616,2.217,2.2227,2.2234,2.2302,2.232,2.2369,2.2389,2.2416,2.2439,2.2499,2.2535,2.255,2.2577,2.2623,2.2664,2.267,2.2687,2.2701,2.2706,2.2635,2.2626,2.2617,2.2604,2.2704,2.2704,2.278,2.278,2.2781]}]]